Location: DARK SKY Beskydy - Park tmavé oblohy, www.darkskybeskydy.cz
(49.4926°N, 18.5016°E)
Time: 20:29:50
(UTC+02:00)

Vanguard 3 - Pass Details

Date: 19 July 2024
Orbit: 508 x 3215 km, 33.3° (Epoch: 14 June)

Event Time Altitude Azimuth Distance (km) Brightness Sun altitude
Rises 04:37:52 0° 259° (WSW) 6,491 11.2 -3.8°
Reaches altitude 10° 04:42:06 10° 253° (WSW) 5,725 10.9 -3.3°
Maximum altitude 04:59:06 46° 189° (S) 3,940 10.4 -1.1°
Drops below altitude 10° 05:15:46 10° 125° (SE) 5,605 11.8 1.2°
Sets 05:19:51 0° 119° (ESE) 6,349 12.2 1.8°
